1514012400.66,18108,7.38,73100.3,-12.45,-13.15,-13.07,0,*61
1514012401.92,18109,7.38,73094.3,-12.45,-13.01,-13.07,0,*65
1514012403.19,18110,7.38,73094.3,-12.45,-13.01,-13.11,0,*6A
1514012404.43,18111,7.38,73082.3,-12.45,-12.97,-13.11,0,*65
1514012405.72,18112,7.38,73100.5,-12.45,-13.01,-13.01,0,*69
1514012406.96,18113,7.38,73094.3,-12.45,-13.15,-13.15,0,*68
1514012408.2,18114,7.38,73096.0,-12.45,-13.11,-13.11,0,*6F
1514012409.49,18115,7.38,73080.8,-12.45,-13.01,-13.01,0,*6E
1514012410.77,18116,7.38,73082.8,-12.45,-13.01,-13.01,0,*6D
1514012412.06,18117,7.38,73092.3,-12.45,-13.01,-13.01,0,*6C
1514012413.3,18118,7.38,73080.0,-12.45,-13.15,-13.07,0,*60
1514012414.56,18119,7.38,73100.8,-12.45,-13.11,-13.01,0,*63
1514012415.79,18120,7.38,73096.5,-12.45,-13.15,-13.07,0,*6B
1514012417.03,18121,7.38,73124.3,-12.45,-13.15,-13.07,0,*6A
1514012418.27,18122,7.38,73126.5,-12.45,-13.07,-13.11,0,*6D
1514012419.51,18123,7.38,73112.3,-12.45,-13.07,-13.15,0,*68
1514012420.77,18124,7.38,73054.0,-12.45,-13.11,-13.01,0,*6D
1514012422.04,18125,7.38,73068.3,-12.45,-13.01,-12.97,0,*63
1514012423.27,18126,7.38,73070.3,-12.45,-13.15,-13.15,0,*6E
1514012424.54,18127,7.38,73066.0,-12.45,-13.01,-13.11,0,*6E
1514012425.81,18128,7.38,73080.8,-12.45,-13.01,-13.11,0,*61
1514012427.07,18129,7.38,73082.3,-12.45,-13.07,-13.01,0,*67
1514012428.33,18130,7.38,73100.0,-12.45,-13.07,-13.01,0,*6F
1514012429.6,18131,7.38,73114.8,-12.45,-13.01,-12.97,0,*66
1514012430.86,18132,7.38,73122.3,-12.45,-13.15,-13.01,0,*6E
1514012432.09,18133,7.38,73128.0,-12.45,-13.15,-13.07,0,*69
1514012433.33,18134,7.38,73132.0,-12.45,-13.07,-13.07,0,*6D
1514012434.6,18135,7.38,73118.5,-12.45,-13.01,-12.97,0,*62
1514012435.89,18136,7.38,73114.0,-12.45,-13.01,-13.01,0,*6F
1514012437.13,18137,7.38,73108.3,-12.45,-13.11,-13.11,0,*6E
1514012438.39,18138,7.38,73112.3,-12.45,-13.15,-13.01,0,*64
1514012439.65,18139,7.38,73056.0,-12.45,-13.11,-13.01,0,*61
1514012440.89,18140,7.38,73060.8,-12.45,-13.07,-13.07,0,*6E
1514012442.15,18141,7.38,73060.5,-12.45,-13.01,-13.15,0,*6A
1514012443.41,18142,7.38,73092.3,-12.45,-13.07,-13.01,0,*6A
1514012444.68,18143,7.38,73110.5,-12.45,-12.97,-13.01,0,*63
1514012445.91,18144,7.38,73110.3,-12.45,-13.15,-13.07,0,*69
1514012447.16,18145,7.38,73106.8,-12.45,-13.15,-13.19,0,*67
1514012448.42,18146,7.38,73108.8,-12.45,-13.01,-13.15,0,*6D
1514012449.71,18147,7.38,73112.5,-12.45,-13.01,-13.01,0,*69
1514012450.97,18148,7.38,73108.3,-12.45,-13.01,-13.15,0,*63
1514012452.24,18149,7.38,73100.8,-12.45,-13.07,-13.01,0,*61
1514012453.5,18150,7.38,73086.5,-12.45,-13.11,-13.01,0,*6E
1514012454.77,18151,7.38,73092.0,-12.45,-13.01,-13.11,0,*6F
1514012456.03,18152,7.38,73090.5,-12.45,-13.11,-13.01,0,*6C
1514012457.26,18153,7.38,73098.0,-12.45,-13.07,-13.07,0,*6C
1514012458.51,18154,7.38,73088.3,-12.45,-13.11,-13.11,0,*6B
1514012459.77,18155,7.38,73092.0,-12.45,-13.11,-13.01,0,*6B
1514012461.06,18156,7.38,73082.0,-12.45,-13.01,-13.01,0,*69
1514012462.3,18157,7.38,73068.8,-12.45,-12.97,-12.97,0,*68
1514012463.59,18158,7.38,73074.8,-12.45,-13.01,-13.01,0,*67
1514012464.82,18159,7.38,73084.5,-12.45,-13.15,-13.07,0,*65
1514012466.08,18160,7.38,73088.0,-12.45,-13.15,-13.01,0,*69
1514012467.32,18161,7.38,73100.0,-12.45,-13.15,-13.07,0,*6E
1514012468.58,18162,7.38,73104.8,-12.45,-12.97,-13.01,0,*60
1514012469.85,18163,7.38,73102.8,-12.45,-13.01,-13.11,0,*6E
1514012471.09,18164,7.38,73084.8,-12.45,-13.07,-13.07,0,*68
1514012472.38,18165,7.38,73100.8,-12.45,-13.01,-13.01,0,*69
1514012473.66,18166,7.38,73096.3,-12.45,-13.01,-13.01,0,*6A
1514012474.93,18167,7.38,73106.5,-12.45,-13.11,-13.01,0,*6A
1514012476.16,18168,7.38,73110.8,-12.45,-13.07,-13.07,0,*64
1514012477.45,18169,7.38,73116.5,-12.45,-13.01,-13.01,0,*65
1514012478.74,18170,7.38,73104.8,-12.45,-13.01,-13.01,0,*6D
1514012480.01,18171,7.38,73128.0,-12.45,-13.01,-12.97,0,*62
1514012481.25,18172,7.38,73120.8,-12.45,-13.07,-13.15,0,*6C
1514012482.51,18173,7.38,73122.5,-12.45,-13.11,-13.01,0,*6F
1514012483.8,18174,7.38,73122.3,-12.45,-13.01,-13.01,0,*69
1514012485.03,18175,7.38,73142.5,-12.45,-13.15,-13.07,0,*6B
1514012486.32,18176,7.38,73164.0,-12.45,-13.01,-13.01,0,*6B
1514012487.61,18177,7.38,73160.8,-12.45,-13.01,-13.01,0,*6A
1514012488.87,18178,7.38,73148.0,-12.45,-13.15,-13.01,0,*60
1514012490.13,18179,7.38,73148.0,-12.45,-13.07,-13.01,0,*62
1514012491.37,18180,7.38,73120.5,-12.45,-13.07,-13.15,0,*61
1514012492.63,18181,7.38,73122.3,-12.45,-13.11,-13.01,0,*62
1514012493.9,18182,7.38,73146.5,-12.45,-13.01,-13.11,0,*61
1514012495.17,18183,7.38,73136.0,-12.45,-13.01,-13.11,0,*60
1514012496.4,18184,7.38,73162.3,-12.45,-13.15,-13.07,0,*65
1514012497.66,18185,7.38,73138.5,-12.45,-12.97,-13.01,0,*69
1514012498.93,18186,7.38,73128.3,-12.45,-13.01,-13.07,0,*62
1514012500.19,18187,7.38,73136.5,-12.45,-13.07,-13.01,0,*63
1514012501.43,18188,7.38,73138.5,-12.45,-13.07,-13.07,0,*6A
1514012502.72,18189,7.38,73140.0,-12.45,-13.01,-13.01,0,*6B
1514012504.01,18190,7.38,73178.8,-12.45,-13.01,-13.01,0,*63
1514012505.24,18191,7.38,73192.3,-12.45,-13.07,-13.07,0,*62
1514012506.51,18192,7.38,73146.0,-12.45,-13.01,-13.11,0,*60
1514012507.77,18193,7.38,73142.8,-12.45,-13.11,-13.01,0,*61
1514012509.06,18194,7.38,73154.3,-12.45,-13.01,-13.01,0,*67
1514012510.3,18195,7.38,73150.3,-12.45,-13.07,-13.07,0,*66
1514012511.54,18196,7.38,73142.5,-12.43,-13.01,-12.97,0,*6D
1514012512.81,18197,7.38,73156.8,-12.45,-13.11,-13.01,0,*65
1514012514.07,18198,7.38,73158.5,-12.45,-13.11,-13.01,0,*6A
1514012515.35,18199,7.38,73166.8,-12.45,-13.01,-13.01,0,*6A
1514012516.59,18200,7.38,73114.0,-12.45,-13.07,-13.07,0,*69
1514012517.88,18201,7.38,73124.0,-12.45,-13.01,-13.01,0,*68
1514012519.14,18202,7.38,73146.5,-12.45,-13.11,-13.01,0,*6A
1514012520.41,18203,7.38,73142.0,-12.45,-13.01,-12.97,0,*64
1514012521.66,18204,7.38,73144.8,-12.45,-12.97,-12.97,0,*6D
1514012522.9,18205,7.38,73154.0,-12.45,-13.07,-13.07,0,*6C
1514012524.13,18206,7.38,73152.5,-12.45,-13.15,-13.07,0,*6C
1514012525.39,18207,7.38,73156.5,-12.45,-12.97,-13.01,0,*60
1514012526.67,18208,7.44,73120.8,-12.45,-13.01,-12.97,0,*6F
1514012527.95,18209,7.38,73076.3,-12.45,-13.01,-13.01,0,*60
1514012529.24,18210,7.38,73090.3,-12.45,-13.01,-13.01,0,*68
1514012530.53,18211,7.38,73108.3,-12.45,-13.01,-13.01,0,*69
1514012531.8,18212,7.38,73104.3,-12.45,-12.97,-13.01,0,*64
1514012533.07,18213,7.38,73118.5,-12.45,-13.01,-12.97,0,*65
1514012534.31,18214,7.38,73122.0,-12.45,-12.97,-12.97,0,*6C
1514012535.6,18215,7.38,73118.8,-12.45,-13.01,-13.01,0,*6D
1514012536.89,18216,7.38,73118.3,-12.45,-13.01,-13.01,0,*6E
1514012538.15,18217,7.38,73100.5,-12.45,-13.07,-13.01,0,*69
1514012539.41,18218,7.38,73084.8,-12.45,-13.11,-13.01,0,*61
1514012540.68,18219,7.38,73096.8,-12.45,-13.01,-12.97,0,*6F
1514012541.94,18220,7.38,73106.3,-12.45,-13.07,-13.01,0,*6D
1514012543.23,18221,7.38,73112.3,-12.45,-13.01,-13.01,0,*6A
1514012544.5,18222,7.38,73118.3,-12.45,-13.01,-12.97,0,*67
1514012545.76,18223,7.38,73138.0,-12.45,-13.11,-13.01,0,*69
1514012547.0,18224,7.38,73146.5,-12.45,-13.15,-13.07,0,*6C
1514012548.26,18225,7.38,73102.5,-12.45,-12.97,-13.01,0,*60
1514012549.55,18226,7.38,73102.5,-12.45,-13.01,-13.01,0,*6D
1514012550.79,18227,7.38,73116.8,-12.45,-13.07,-13.07,0,*6C
1514012552.05,18228,7.38,73122.8,-12.45,-13.11,-13.01,0,*62
1514012553.34,18229,7.38,73132.5,-12.45,-13.01,-13.01,0,*62
1514012554.58,18230,7.38,73138.8,-12.45,-13.07,-13.07,0,*6A
1514012555.87,18231,7.38,73118.5,-12.45,-13.01,-13.01,0,*6B
1514012557.15,18232,7.38,73108.0,-12.45,-13.01,-13.01,0,*68
1514012558.44,18233,7.38,73106.3,-12.45,-13.01,-13.01,0,*69
1514012559.73,18234,7.38,73088.0,-12.45,-13.01,-13.01,0,*6E
1514012561.02,18235,7.38,73088.3,-12.45,-13.01,-13.01,0,*6F
1514012562.31,18236,7.38,73066.5,-12.45,-13.01,-13.01,0,*6C
1514012563.53,18237,7.38,73056.8,-12.43,-13.11,-12.97,0,*64
1514012564.76,18238,7.38,73100.3,-12.41,-13.11,-12.97,0,*69
1514012566.0,18239,7.38,73100.8,-12.43,-13.11,-13.01,0,*64
1514012567.21,18240,7.38,73106.0,-12.43,-13.11,-12.97,0,*64
1514012568.48,18241,7.38,73102.0,-12.45,-12.97,-13.01,0,*62
1514012569.74,18242,7.38,73090.3,-12.45,-12.97,-13.01,0,*61
1514012571.03,18243,7.38,73110.8,-12.45,-13.01,-13.01,0,*6E
1514012572.3,18244,7.38,73098.8,-12.45,-13.01,-12.97,0,*67
1514012573.56,18245,7.38,73090.5,-12.45,-12.97,-13.01,0,*66
1514012574.83,18246,7.38,73128.0,-12.45,-13.01,-12.97,0,*65
1514012576.1,18247,7.38,73140.3,-12.45,-13.01,-13.11,0,*6B
1514012577.34,18248,7.38,73132.3,-12.45,-13.07,-13.07,0,*65
1514012578.61,18249,7.38,73150.0,-12.45,-13.01,-12.97,0,*6A
1514012579.87,18250,7.38,73154.3,-12.45,-12.97,-13.01,0,*62
1514012581.11,18251,7.38,73154.3,-12.45,-13.07,-13.07,0,*6D
1514012582.4,18252,7.38,73142.3,-12.45,-13.01,-13.01,0,*6E
1514012583.69,18253,7.38,73142.3,-12.45,-13.01,-13.01,0,*6F
1514012584.93,18254,7.38,73148.8,-12.43,-13.01,-12.97,0,*60
1514012586.19,18255,7.38,73128.0,-12.45,-12.97,-13.01,0,*67
1514012587.44,18256,7.38,73142.0,-12.45,-12.97,-12.97,0,*6A
1514012588.73,18257,7.38,73122.3,-12.45,-13.01,-13.01,0,*6B
1514012590.02,18258,7.38,73124.3,-12.45,-13.01,-13.01,0,*64
1514012591.25,18259,7.38,73102.8,-12.45,-13.07,-13.07,0,*65
1514012592.52,18260,7.38,73028.0,-12.45,-13.01,-12.97,0,*61
1514012593.79,18261,7.38,73028.8,-12.45,-12.97,-13.01,0,*60
1514012595.02,18262,7.38,73064.3,-12.43,-13.11,-13.01,0,*6A
1514012596.28,18263,7.38,73080.8,-12.43,-13.01,-13.01,0,*6A
1514012597.55,18264,7.38,73126.0,-12.43,-13.01,-13.01,0,*6D
1514012598.81,18265,7.38,73130.0,-12.43,-13.01,-13.01,0,*6C
1514012600.07,18266,7.38,73118.3,-12.43,-13.01,-13.01,0,*6F
1514012601.36,18267,7.38,73090.0,-12.45,-13.01,-13.01,0,*68
1514012602.63,18268,7.38,73074.8,-12.45,-13.01,-12.97,0,*69
1514012603.89,18269,7.38,73074.3,-12.45,-13.11,-13.01,0,*67
1514012605.16,18270,7.38,73074.3,-12.45,-13.01,-13.11,0,*6F
1514012606.45,18271,7.38,73090.3,-12.45,-13.01,-13.01,0,*6F
1514012607.74,18272,7.38,73064.5,-12.45,-13.01,-13.01,0,*6C
1514012609.02,18273,7.38,73070.0,-12.45,-13.01,-13.01,0,*6D
1514012610.28,18274,7.38,73072.3,-12.43,-13.01,-13.01,0,*6C
1514012611.53,18275,7.38,73076.8,-12.43,-13.01,-12.97,0,*63
1514012612.79,18276,7.38,73084.5,-12.43,-13.01,-13.01,0,*6E
1514012614.08,18277,7.38,73102.0,-12.45,-13.01,-13.01,0,*69
1514012615.34,18278,7.38,73098.5,-12.43,-13.01,-13.01,0,*60
1514012616.6,18279,7.38,73110.3,-12.43,-13.01,-13.01,0,*61
1514012617.84,18280,7.38,73112.8,-12.43,-13.01,-13.11,0,*66
1514012619.13,18281,7.38,73134.3,-12.45,-13.01,-13.01,0,*60
1514012620.42,18282,7.38,73126.8,-12.45,-13.01,-13.01,0,*63
1514012621.68,18283,7.38,73118.3,-12.45,-12.97,-13.01,0,*6C
1514012622.95,18284,7.38,73122.8,-12.45,-13.11,-13.01,0,*64
1514012624.18,18285,7.38,73128.3,-12.45,-13.07,-13.07,0,*64
1514012625.43,18286,7.38,73132.5,-12.45,-12.97,-12.97,0,*67
1514012626.72,18287,7.38,73128.3,-12.45,-13.01,-13.01,0,*66
1514012628.01,18288,7.38,73138.5,-12.45,-13.01,-13.01,0,*69
1514012629.28,18289,7.38,73138.5,-12.45,-13.01,-12.97,0,*66
1514012630.56,18290,7.38,73124.5,-12.45,-13.01,-13.01,0,*60
1514012631.83,18291,7.38,73112.8,-12.45,-12.97,-13.01,0,*6F
1514012633.12,18292,7.38,73122.3,-12.45,-13.01,-13.01,0,*62
1514012634.39,18293,7.38,73162.5,-12.45,-13.01,-12.97,0,*6D
1514012635.65,18294,7.38,73154.0,-12.45,-12.97,-13.01,0,*6A
1514012636.91,18295,7.38,73166.3,-12.45,-13.15,-13.01,0,*60
1514012638.14,18296,7.38,73160.0,-12.43,-13.11,-13.01,0,*61
1514012639.41,18297,7.38,73136.8,-12.43,-13.01,-13.01,0,*61
1514012640.64,18298,7.38,73130.8,-12.43,-12.97,-13.01,0,*60
1514012641.88,18299,7.38,73148.8,-12.43,-13.11,-13.01,0,*6E
1514012643.14,18300,7.38,73144.3,-12.43,-13.01,-13.01,0,*6E
1514012644.4,18301,7.38,73126.0,-12.43,-13.01,-13.01,0,*6F
1514012645.66,18302,7.38,73130.3,-12.43,-13.01,-13.01,0,*6C
1514012646.9,18303,7.38,73138.5,-12.43,-12.97,-13.01,0,*63
1514012648.12,18304,7.38,73138.0,-12.43,-12.97,-12.97,0,*6A
1514012649.4,18305,7.38,73178.0,-12.41,-13.01,-13.01,0,*69
1514012650.68,18306,7.38,73170.3,-12.41,-13.01,-13.01,0,*6A
1514012651.91,18307,7.38,73130.3,-12.43,-13.11,-13.01,0,*68
1514012653.19,18308,7.38,73118.3,-12.45,-13.01,-12.97,0,*6E
1514012654.45,18309,7.38,73134.0,-12.43,-13.01,-13.01,0,*67
1514012655.71,18310,7.38,73138.5,-12.43,-13.01,-13.01,0,*6F
1514012656.94,18311,7.38,73122.0,-12.43,-12.97,-13.01,0,*60
1514012658.19,18312,7.38,73142.0,-12.43,-13.01,-12.97,0,*63
1514012659.45,18313,7.38,73132.3,-12.43,-13.01,-13.01,0,*6C
1514012660.69,18314,7.38,73138.3,-12.43,-13.01,-13.11,0,*6A
1514012661.95,18315,7.38,73126.8,-12.43,-13.01,-13.01,0,*6A
1514012663.19,18316,7.38,73114.0,-12.43,-13.01,-12.97,0,*67
1514012664.45,18317,7.38,73116.0,-12.45,-13.15,-13.01,0,*6B
1514012665.72,18318,7.38,73116.8,-12.45,-13.01,-13.07,0,*67
1514012666.99,18319,7.38,73112.3,-12.45,-13.01,-12.97,0,*6E
1514012668.22,18320,7.38,73116.3,-12.43,-12.97,-13.01,0,*62
1514012669.51,18321,7.38,73118.0,-12.41,-13.01,-13.01,0,*6F
1514012670.77,18322,7.38,73104.3,-12.43,-13.01,-13.01,0,*6E
1514012671.98,18323,7.38,73122.0,-12.43,-13.11,-12.97,0,*60
1514012673.22,18324,7.38,73110.8,-12.43,-12.97,-13.01,0,*66
1514012674.48,18325,7.38,73116.3,-12.43,-13.01,-13.01,0,*69
1514012675.74,18326,7.38,73136.3,-12.41,-12.97,-13.01,0,*66
1514012677.0,18327,7.38,73126.5,-12.43,-13.01,-13.01,0,*6B
1514012678.24,18328,7.38,73132.0,-12.43,-12.97,-13.01,0,*6A
1514012679.47,18329,7.38,73136.8,-12.43,-13.11,-13.01,0,*64
1514012680.73,18330,7.38,73132.3,-12.43,-13.01,-13.01,0,*6D
1514012681.98,18331,7.38,73126.8,-12.43,-13.01,-12.97,0,*62
1514012683.21,18332,7.38,73134.3,-12.43,-12.97,-13.01,0,*61
1514012684.43,18333,7.38,73136.5,-12.43,-12.97,-12.97,0,*6E
1514012685.71,18334,7.38,73118.8,-12.41,-13.01,-13.01,0,*6B
1514012686.95,18335,7.38,73104.0,-12.43,-13.01,-13.11,0,*69
1514012688.21,18336,7.38,73108.8,-12.43,-13.01,-13.01,0,*6B
1514012689.45,18337,7.38,73124.3,-12.43,-13.11,-13.01,0,*6B
1514012690.71,18338,7.38,73120.8,-12.43,-13.01,-13.01,0,*65
1514012691.95,18339,7.38,73120.8,-12.43,-12.97,-13.01,0,*6A
1514012693.19,18340,7.38,73126.5,-12.43,-13.01,-12.97,0,*64
1514012694.45,18341,7.38,73128.8,-12.43,-13.01,-13.01,0,*6B
1514012695.69,18342,7.38,73134.8,-12.43,-13.01,-12.97,0,*66
1514012696.96,18343,7.38,73138.8,-12.41,-13.01,-12.97,0,*65
1514012698.22,18344,7.38,73138.0,-12.43,-13.01,-13.01,0,*6E
1514012699.48,18345,7.38,73146.0,-12.43,-13.01,-13.01,0,*6F
1514012700.72,18346,7.38,73146.5,-12.41,-12.97,-12.97,0,*6E
1514012701.98,18347,7.38,73148.3,-12.43,-13.01,-13.01,0,*6D
1514012703.22,18348,7.38,73144.8,-12.43,-13.01,-13.11,0,*63
1514012704.46,18349,7.38,73144.5,-12.43,-12.97,-13.01,0,*6D
1514012705.72,18350,7.38,73154.3,-12.43,-13.01,-13.01,0,*6B
1514012706.95,18351,7.38,73154.0,-12.43,-13.11,-13.01,0,*6B
1514012708.22,18352,7.38,73150.8,-12.43,-13.01,-13.01,0,*69
1514012709.46,18353,7.38,73156.3,-12.43,-13.01,-12.97,0,*66
1514012710.69,18354,7.38,73150.3,-12.43,-13.11,-13.01,0,*6E
1514012711.94,18355,7.38,73150.0,-12.43,-13.01,-12.97,0,*60
1514012713.2,18356,7.38,73152.8,-12.43,-13.01,-13.01,0,*6D
1514012714.44,18357,7.38,73140.0,-12.43,-13.01,-12.97,0,*62
1514012715.68,18358,7.38,73142.0,-12.43,-13.01,-12.97,0,*6D
1514012716.93,18359,7.38,73140.8,-12.43,-13.01,-12.97,0,*6C
1514012718.19,18360,7.38,73152.3,-12.43,-13.01,-13.01,0,*68
1514012719.42,18361,7.38,73162.8,-12.43,-12.97,-13.01,0,*67
1514012720.67,18362,7.38,73158.5,-12.43,-13.01,-12.97,0,*64
1514012721.9,18363,7.38,73170.8,-12.43,-12.97,-13.01,0,*65
1514012723.12,18364,7.38,73170.8,-12.43,-12.97,-12.97,0,*6C
1514012724.38,18365,7.38,73174.8,-12.43,-13.01,-13.01,0,*6D
1514012725.67,18366,7.38,73178.8,-12.41,-13.01,-13.01,0,*6C
1514012726.93,18367,7.38,73148.3,-12.43,-13.01,-13.01,0,*6F
1514012728.16,18368,7.38,73110.5,-12.43,-12.97,-13.01,0,*6E
1514012729.41,18369,7.38,73120.5,-12.43,-13.01,-12.97,0,*6F
1514012730.65,18370,7.38,73116.8,-12.43,-13.01,-12.97,0,*67
1514012731.93,18371,7.38,73116.0,-12.41,-13.01,-13.01,0,*6A
1514012733.19,18372,7.38,73120.8,-12.41,-12.97,-13.01,0,*67
1514012734.47,18373,7.38,73120.8,-12.41,-13.01,-13.01,0,*68
1514012735.71,18374,7.38,73128.5,-12.43,-13.01,-12.97,0,*63
1514012736.95,18375,7.38,73112.5,-12.43,-12.97,-13.01,0,*62
1514012738.21,18376,7.38,73112.3,-12.41,-13.01,-12.97,0,*63
1514012739.46,18377,7.38,73128.8,-12.43,-13.01,-12.97,0,*60
1514012740.74,18378,7.38,73124.5,-12.41,-13.01,-13.01,0,*63
1514012741.98,18379,7.38,73120.0,-12.43,-13.01,-13.11,0,*61
1514012743.26,18380,7.38,73112.3,-12.41,-13.01,-13.01,0,*64
1514012744.54,18381,7.38,73106.3,-12.41,-13.01,-13.01,0,*65
1514012745.78,18382,7.38,73110.0,-12.43,-12.97,-13.01,0,*6A
1514012747.04,18383,7.38,73116.3,-12.41,-13.01,-13.11,0,*66
1514012748.3,18384,7.38,73116.5,-12.43,-13.01,-13.01,0,*62
1514012749.59,18385,7.38,73120.8,-12.41,-13.01,-13.01,0,*61
1514012750.87,18386,7.38,73122.0,-12.41,-13.01,-13.01,0,*62
1514012752.11,18387,7.38,73128.8,-12.41,-12.97,-12.97,0,*63
1514012753.37,18388,7.38,73134.0,-12.41,-13.01,-12.97,0,*62
1514012754.65,18389,7.38,73130.0,-12.41,-13.01,-13.01,0,*6D
1514012755.89,18390,7.38,73134.0,-12.43,-12.97,-13.01,0,*69
1514012757.13,18391,7.38,73130.0,-12.43,-13.01,-12.97,0,*68
1514012758.37,18392,7.38,73142.3,-12.43,-13.01,-12.97,0,*6B
1514012759.64,18393,7.38,73130.8,-12.43,-13.01,-13.01,0,*64
1514012760.92,18394,7.38,73112.0,-12.41,-13.01,-13.01,0,*61
1514012762.16,18395,7.38,73104.3,-12.43,-13.01,-12.97,0,*6C
1514012763.42,18396,7.38,73100.0,-12.43,-13.01,-13.01,0,*61
1514012764.66,18397,7.38,73100.5,-12.43,-12.97,-13.01,0,*6E
1514012765.89,18398,7.38,73080.8,-12.43,-12.97,-13.01,0,*61
1514012767.18,18399,7.38,73088.5,-12.41,-13.01,-13.01,0,*6C
1514012768.43,18400,7.38,73098.3,-12.41,-13.11,-13.01,0,*6A
1514012769.69,18401,7.38,73092.3,-12.41,-13.01,-13.11,0,*6B
1514012770.95,18402,7.38,73108.0,-12.43,-13.01,-13.01,0,*6B
1514012772.2,18403,7.38,73120.8,-12.43,-13.01,-12.97,0,*64
1514012773.48,18404,7.38,73124.8,-12.41,-13.01,-13.01,0,*6F
1514012774.76,18405,7.38,73132.0,-12.41,-13.01,-13.01,0,*6E
1514012776.02,18406,7.38,73124.0,-12.41,-12.97,-13.01,0,*63
1514012777.3,18407,7.38,73102.8,-12.41,-13.01,-13.01,0,*6C
1514012778.56,18408,7.38,73084.5,-12.43,-13.01,-13.01,0,*61
1514012779.83,18409,7.38,73086.8,-12.43,-13.01,-13.01,0,*60
1514012781.06,18410,7.38,73084.8,-12.41,-13.11,-12.97,0,*65
1514012782.3,18411,7.38,73092.0,-12.41,-13.11,-13.11,0,*6B
1514012783.53,18412,7.38,73102.0,-12.43,-12.97,-13.01,0,*64
1514012784.78,18413,7.38,73108.8,-12.43,-13.01,-12.97,0,*65
1514012786.06,18414,7.38,73116.3,-12.41,-13.01,-13.01,0,*6E
1514012787.32,18415,7.38,73120.0,-12.41,-13.01,-12.97,0,*61
1514012788.6,18416,7.38,73104.3,-12.41,-13.01,-13.01,0,*6C
1514012789.88,18417,7.38,73080.0,-12.41,-13.01,-13.01,0,*6D
1514012791.17,18418,7.38,73068.8,-12.41,-13.01,-13.01,0,*62
1514012792.41,18419,7.38,73076.5,-12.43,-13.01,-12.97,0,*6F
1514012793.67,18420,7.38,73078.8,-12.41,-13.01,-12.97,0,*67
1514012794.96,18421,7.38,73064.8,-12.41,-13.01,-13.01,0,*68
1514012796.22,18422,7.38,73080.0,-12.41,-13.01,-12.97,0,*65
1514012797.48,18423,7.38,73076.3,-12.43,-13.01,-13.01,0,*68
1514012798.74,18424,7.38,73078.5,-12.41,-12.97,-13.01,0,*63
1514012800.02,18425,7.38,73084.3,-12.41,-13.01,-13.01,0,*6C
1514012801.26,18426,7.38,73080.5,-12.43,-13.01,-12.97,0,*63
1514012802.52,18427,7.38,73074.0,-12.41,-13.11,-13.01,0,*6F
1514012803.8,18428,7.38,73086.3,-12.41,-13.01,-13.01,0,*61
1514012805.06,18429,7.38,73100.3,-12.41,-13.01,-13.11,0,*61
1514012806.32,18430,7.38,73112.3,-12.41,-13.01,-13.11,0,*69
1514012807.56,18431,7.38,73120.5,-12.43,-13.11,-13.01,0,*6A
1514012808.79,18432,7.38,73088.8,-12.43,-13.11,-13.01,0,*69
1514012810.05,18433,7.38,73058.3,-12.41,-12.97,-13.01,0,*65
1514012811.31,18434,7.38,73064.8,-12.41,-13.01,-13.11,0,*6D
1514012812.57,18435,7.38,73070.5,-12.41,-13.01,-12.97,0,*63
1514012813.81,18436,7.38,73076.8,-12.43,-13.11,-13.01,0,*6D
1514012815.02,18437,7.38,73082.3,-12.43,-13.11,-13.11,0,*6D
1514012816.28,18438,7.38,73080.8,-12.43,-13.01,-13.01,0,*62
1514012817.56,18439,7.38,73080.5,-12.41,-13.01,-13.01,0,*61
1514012818.83,18440,7.38,73084.0,-12.41,-13.01,-12.97,0,*61
1514012820.09,18441,7.38,73096.8,-12.43,-13.01,-13.01,0,*6C
1514012821.34,18442,7.38,73090.0,-12.41,-13.15,-13.01,0,*68
1514012822.62,18443,7.38,73084.3,-12.41,-13.01,-13.01,0,*6C
1514012823.91,18444,7.38,73088.8,-12.41,-13.01,-13.01,0,*6B
1514012825.16,18445,7.38,73112.0,-12.41,-12.97,-13.01,0,*64
1514012826.4,18446,7.38,73106.3,-12.43,-12.97,-13.01,0,*65
1514012827.66,18447,7.38,73112.3,-12.43,-13.01,-13.01,0,*6A
1514012828.92,18448,7.38,73110.0,-12.41,-13.01,-12.97,0,*69
1514012830.19,18449,7.38,73108.5,-12.43,-13.01,-13.01,0,*64
1514012831.47,18450,7.38,73068.8,-12.41,-13.01,-13.01,0,*6E
1514012832.72,18451,7.38,73072.3,-12.41,-13.11,-13.01,0,*6E
1514012833.98,18452,7.38,73078.5,-12.41,-13.11,-13.01,0,*6D
1514012835.24,18453,7.38,73100.3,-12.41,-13.01,-12.97,0,*63
1514012836.52,18454,7.38,73122.5,-12.41,-13.01,-13.01,0,*6A
1514012837.81,18455,7.38,73148.5,-12.41,-13.01,-13.01,0,*6B
1514012839.07,18456,7.38,73154.0,-12.41,-13.01,-13.11,0,*69
1514012840.35,18457,7.38,73160.8,-12.41,-13.01,-13.01,0,*69
1514012841.59,18458,7.38,73128.3,-12.43,-13.01,-12.97,0,*6A
1514012842.85,18459,7.38,73170.5,-12.43,-13.01,-13.01,0,*65
1514012844.11,18460,7.38,73146.0,-12.43,-13.01,-13.01,0,*6F
1514012845.36,18461,7.38,73142.3,-12.43,-13.01,-12.97,0,*60
1514012846.62,18462,7.38,73150.0,-12.43,-13.01,-13.01,0,*6D
1514012847.9,18463,7.38,73146.8,-12.41,-13.01,-13.01,0,*6E
1514012849.16,18464,7.38,73156.0,-12.41,-13.11,-13.01,0,*68
1514012850.44,18465,7.38,73154.3,-12.41,-13.01,-13.01,0,*68
1514012851.7,18466,7.38,73112.8,-12.43,-13.01,-13.01,0,*69
1514012852.96,18467,7.38,73094.5,-12.41,-13.01,-12.97,0,*64
1514012854.23,18468,7.38,73104.0,-12.41,-13.01,-12.97,0,*6B
1514012855.46,18469,7.38,73110.5,-12.43,-13.01,-13.15,0,*63
1514012856.73,18470,7.38,73110.0,-12.41,-13.01,-13.11,0,*6D
1514012857.99,18471,7.38,73114.0,-12.41,-13.01,-13.11,0,*6C
1514012859.25,18472,7.38,73122.3,-12.41,-13.01,-13.11,0,*6F
1514012860.48,18473,7.38,73136.8,-12.43,-13.11,-13.01,0,*6C
1514012861.74,18474,7.38,73134.8,-12.43,-13.01,-13.01,0,*6A
1514012863.03,18475,7.38,73140.0,-12.41,-13.01,-13.01,0,*69
1514012864.29,18476,7.38,73148.0,-12.41,-13.01,-13.11,0,*6B
1514012865.57,18477,7.38,73148.0,-12.41,-13.01,-13.01,0,*6B
1514012866.83,18478,7.38,73134.0,-12.41,-13.01,-12.97,0,*6A
1514012868.09,18479,7.38,73130.0,-12.43,-13.01,-13.01,0,*67
1514012869.38,18480,7.38,73128.5,-12.41,-13.01,-13.01,0,*63
1514012870.66,18481,7.38,73122.0,-12.41,-13.01,-13.01,0,*62
1514012871.94,18482,7.38,73108.3,-12.41,-13.01,-13.01,0,*61
1514012873.22,18483,7.38,73122.8,-12.41,-13.01,-13.01,0,*60
1514012874.49,18484,7.38,73130.3,-12.41,-13.01,-12.97,0,*69
1514012875.74,18485,7.38,73116.3,-12.41,-13.11,-13.01,0,*67
1514012877.02,18486,7.38,73134.0,-12.41,-13.01,-13.01,0,*65
1514012878.31,18487,7.38,73132.0,-12.41,-13.01,-13.01,0,*64
1514012879.55,18488,7.38,73140.8,-12.43,-13.01,-12.97,0,*67
1514012880.83,18489,7.38,73150.3,-12.41,-13.01,-13.01,0,*6A
1514012882.05,18490,7.38,73144.5,-12.43,-12.97,-12.97,0,*60
1514012883.26,18491,7.38,73142.5,-12.43,-13.11,-12.97,0,*6E
1514012884.5,18492,7.38,73150.0,-12.41,-13.11,-12.97,0,*6F
1514012885.72,18493,7.38,73144.8,-12.43,-12.97,-13.11,0,*6C
1514012886.97,18494,7.38,73116.5,-12.41,-12.97,-13.01,0,*68
1514012888.23,18495,7.38,73114.3,-12.41,-13.01,-13.11,0,*66
1514012889.5,18496,7.38,73100.0,-12.43,-13.01,-13.01,0,*66
1514012890.78,18497,7.38,73126.8,-12.41,-13.01,-13.01,0,*65
1514012892.06,18498,7.38,73132.8,-12.41,-13.01,-13.01,0,*6A
1514012893.34,18499,7.38,73136.5,-12.41,-13.01,-13.01,0,*6B
1514012894.61,18500,7.38,73138.3,-12.41,-13.01,-13.11,0,*6B
1514012895.89,18501,7.44,73124.0,-12.41,-13.01,-13.01,0,*6B
1514012897.15,18502,7.38,73124.8,-12.43,-13.01,-13.01,0,*6A
1514012898.41,18503,7.38,73134.5,-12.43,-13.01,-13.01,0,*6B
1514012899.69,18504,7.38,73120.0,-12.41,-13.01,-13.01,0,*6E
1514012900.95,18505,7.38,73128.0,-12.43,-13.01,-13.01,0,*6D
1514012902.22,18506,7.38,73126.8,-12.43,-13.01,-13.01,0,*6E
1514012903.5,18507,7.38,73144.8,-12.41,-13.01,-13.01,0,*6D